TimeEST,TemperatureF,Dew PointF,Humidity,Sea Level PressureIn,VisibilityMPH,Wind Direction,Wind SpeedMPH,Gust SpeedMPH,PrecipitationIn,Events,Conditions,WindDirDegrees,DateUTC
12:53 AM,24.1,15.1,69,30.35,10.0,ESE,5.8,-,N/A,,Scattered Clouds,110,2011-01-10 05:53:00
1:53 AM,24.1,14.0,65,30.35,10.0,East,9.2,-,N/A,,Scattered Clouds,90,2011-01-10 06:53:00
2:53 AM,24.1,14.0,65,30.36,10.0,East,8.1,-,N/A,,Mostly Cloudy,100,2011-01-10 07:53:00
3:53 AM,24.1,12.9,62,30.35,10.0,East,9.2,-,N/A,,Overcast,100,2011-01-10 08:53:00
4:53 AM,24.1,12.9,62,30.34,10.0,East,6.9,-,N/A,,Clear,90,2011-01-10 09:53:00
5:53 AM,24.1,12.0,60,30.34,10.0,East,8.1,-,N/A,,Clear,90,2011-01-10 10:53:00
6:53 AM,24.1,10.9,57,30.33,10.0,East,10.4,-,N/A,,Clear,90,2011-01-10 11:53:00
7:53 AM,24.1,10.9,57,30.35,10.0,East,8.1,-,N/A,,Mostly Cloudy,100,2011-01-10 12:53:00
8:53 AM,23.0,10.9,60,30.35,10.0,East,8.1,-,N/A,,Mostly Cloudy,80,2011-01-10 13:53:00
9:53 AM,25.0,12.0,58,30.34,10.0,East,11.5,-,N/A,,Clear,90,2011-01-10 14:53:00
10:53 AM,27.0,12.0,53,30.35,10.0,East,9.2,-,N/A,,Mostly Cloudy,80,2011-01-10 15:53:00
11:53 AM,28.9,12.0,49,30.35,10.0,East,9.2,-,N/A,,Overcast,80,2011-01-10 16:53:00
12:53 PM,30.0,12.9,49,30.30,10.0,East,10.4,-,N/A,,Overcast,80,2011-01-10 17:53:00
1:53 PM,30.9,12.9,47,30.26,10.0,East,11.5,-,N/A,,Overcast,80,2011-01-10 18:53:00
2:53 PM,30.9,14.0,50,30.26,10.0,East,9.2,-,N/A,,Overcast,90,2011-01-10 19:53:00
3:53 PM,30.9,14.0,50,30.26,10.0,East,9.2,-,N/A,,Overcast,90,2011-01-10 20:53:00
4:53 PM,30.0,14.0,51,30.26,10.0,East,13.8,-,N/A,,Overcast,80,2011-01-10 21:53:00
5:53 PM,28.9,15.1,56,30.26,10.0,East,11.5,-,N/A,,Overcast,90,2011-01-10 22:53:00
6:53 PM,28.0,15.1,58,30.25,10.0,East,12.7,-,N/A,,Overcast,80,2011-01-10 23:53:00
7:53 PM,28.0,15.1,58,30.25,10.0,East,10.4,-,N/A,,Overcast,80,2011-01-11 00:53:00
8:53 PM,28.0,16.0,61,30.24,10.0,East,11.5,-,N/A,,Overcast,80,2011-01-11 01:53:00
9:53 PM,27.0,16.0,63,30.23,10.0,East,9.2,-,N/A,,Overcast,90,2011-01-11 02:53:00
10:53 PM,27.0,16.0,63,30.22,10.0,East,9.2,-,N/A,,Overcast,90,2011-01-11 03:53:00
11:53 PM,27.0,16.0,63,30.20,10.0,East,11.5,-,N/A,,Overcast,80,2011-01-11 04:53:00